EW0415 Weather Reports


time (UTC)temp
C
wind
direction
speed
KPH
gust
KPH
rain 1hr
cm
rain 24hr
cm
rain mn
cm
humidity
%
barometer
mb
20260905104018 13 0 0.0 11.3 0.00 0.13 0.13 73 1021.1
20260905103516 13 0 3.2 14.5 0.00 0.13 0.13 73 1021.1
20260905103033 13 260 1.6 14.5 0.00 0.13 0.13 73 1021.0
20260905102515 13 261 4.8 14.5 0.00 0.13 0.13 73 1020.9
20260905102021 13 219 3.2 14.5 0.00 0.13 0.13 73 1020.7
20260905101542 13 257 1.6 11.3 0.00 0.13 0.13 72 1020.8
20260905101016 13 283 1.6 12.9 0.00 0.13 0.13 72 1020.6
20260905100517 13 277 3.2 12.9 0.00 0.13 0.13 72 1020.5
20260905100034 13 250 3.2 12.9 0.00 0.13 0.13 72 1020.5
20260905095519 13 246 3.2 11.3 0.00 0.13 0.13 72 1020.4
20260905095020 13 252 3.2 11.3 0.00 0.13 0.13 72 1020.2
20260905094532 13 257 3.2 14.5 0.00 0.13 0.13 71 1020.0
20260905094021 13 227 3.2 14.5 0.00 0.13 0.13 71 1019.9
20260905093517 13 269 3.2 11.3 0.00 0.13 0.13 71 1019.9
20260905093036 13 213 3.2 11.3 0.00 0.13 0.13 71 1019.9
20260905092515 14 265 3.2 11.3 0.00 0.13 0.13 70 1019.9
20260905092016 14 236 3.2 12.9 0.00 0.13 0.13 70 1019.8
20260905091532 14 264 3.2 16.1 0.00 0.13 0.13 69 1019.7
20260905091017 14 259 3.2 16.1 0.00 0.13 0.13 69 1019.5
20260905090519 14 263 6.4 16.1 0.00 0.13 0.13 68 1019.5
20260905090037 14 183 4.8 17.7 0.00 0.13 0.13 68 1019.5
20260905085521 14 232 6.4 17.7 0.00 0.13 0.13 68 1019.4
20260905085021 14 261 3.2 16.1 0.00 0.13 0.13 67 1019.3
20260905084534 15 248 6.4 16.1 0.00 0.13 0.13 66 1019.1
20260905084016 15 269 4.8 20.9 0.00 0.13 0.13 65 1019.2
20260905083516 15 290 6.4 22.5 0.00 0.13 0.13 65 1018.8
20260905083037 15 273 8.0 22.5 0.00 0.13 0.13 65 1018.8
20260905082517 15 209 6.4 19.3 0.00 0.15 0.13 65 1018.8
20260905082016 15 296 8.0 19.3 0.00 0.15 0.13 65 1018.5
20260905081535 15 273 4.8 25.7 0.00 0.15 0.13 65 1018.4
20260905081020 15 345 8.0 25.7 0.00 0.15 0.13 66 1018.3
20260905080519 15 267 4.8 14.5 0.00 0.15 0.13 66 1018.1
20260905080041 15 212 3.2 17.7 0.00 0.15 0.13 66 1018.2
20260905075519 15 261 6.4 24.1 0.00 0.15 0.13 65 1017.9
20260905075017 15 360 8.0 24.1 0.00 0.15 0.13 65 1017.7
20260905074534 15 304 11.3 24.1 0.00 0.15 0.13 64 1017.9
20260905074018 15 277 8.0 24.1 0.00 0.15 0.13 64 1017.7
20260905073517 15 251 8.0 24.1 0.00 0.15 0.13 64 1017.7
20260905073037 15 257 6.4 27.4 0.00 0.15 0.13 64 1017.5
20260905072517 15 259 6.4 27.4 0.00 0.15 0.13 64 1017.4
20260905072017 15 275 11.3 27.4 0.00 0.15 0.13 63 1017.4
20260905071533 16 164 9.7 25.7 0.00 0.15 0.13 63 1017.4
20260905071016 16 309 12.9 25.7 0.00 0.15 0.13 62 1017.4
20260905070518 16 244 8.0 24.1 0.00 0.15 0.13 63 1017.3
20260905070038 16 269 9.7 24.1 0.00 0.15 0.13 64 1017.3
20260905065518 16 270 8.0 24.1 0.00 0.15 0.13 62 1017.3
20260905065021 16 360 6.4 27.4 0.00 0.15 0.13 62 1017.2
20260905064536 16 260 12.9 27.4 0.00 0.15 0.13 61 1017.2
20260905064016 16 217 9.7 25.7 0.00 0.15 0.13 63 1017.1
20260905063519 16 271 8.0 27.4 0.00 0.15 0.13 62 1017.1
20260905063034 16 279 11.3 27.4 0.00 0.15 0.13 62 1017.1
20260905062522 16 204 9.7 25.7 0.00 0.15 0.13 62 1017.0
20260905062016 16 307 11.3 25.7 0.00 0.15 0.13 63 1016.9
20260905061540 16 254 9.7 25.7 0.00 0.15 0.13 63 1016.8
20260905061017 16 294 9.7 32.2 0.00 0.15 0.13 63 1016.9
20260905060520 16 242 11.3 32.2 0.00 0.15 0.13 63 1016.8
20260905060038 16 258 11.3 29.0 0.00 0.15 0.13 63 1016.7
20260905055518 16 290 11.3 33.8 0.00 0.15 0.13 62 1016.5
20260905055018 16 254 9.7 33.8 0.00 0.15 0.13 62 1016.4
20260905054534 16 282 11.3 32.2 0.00 0.15 0.13 62 1016.6
20260905054015 16 284 12.9 32.2 0.00 0.15 0.13 61 1016.5
20260905053520 17 276 12.9 32.2 0.00 0.15 0.13 60 1016.5
20260905053035 17 259 11.3 25.7 0.00 0.15 0.13 60 1016.5
20260905052522 17 284 11.3 27.4 0.00 0.15 0.13 59 1016.5
20260905052019 16 196 14.5 29.0 0.00 0.15 0.13 59 1016.6
20260905051536 17 271 12.9 29.0 0.00 0.15 0.13 59 1016.5
20260905051017 16 244 12.9 29.0 0.00 0.15 0.13 61 1016.6
20260905050518 16 287 9.7 29.0 0.00 0.15 0.13 62 1016.6
20260905050035 16 269 9.7 25.7 0.00 0.15 0.13 62 1016.5
20260905045516 16 243 8.0 29.0 0.00 0.15 0.13 61 1016.5
20260905045016 17 225 11.3 29.0 0.00 0.15 0.13 59 1016.4
20260905044539 17 300 9.7 32.2 0.00 0.15 0.13 59 1016.2
20260905044017 17 308 12.9 32.2 0.00 0.15 0.13 57 1016.1
20260905043517 17 221 11.3 27.4 0.00 0.15 0.13 59 1016.1
20260905043033 17 245 11.3 30.6 0.00 0.15 0.13 60 1016.0
20260905042516 17 231 11.3 30.6 0.00 0.15 0.13 60 1016.0
20260905042016 17 284 12.9 30.6 0.00 0.15 0.13 60 1016.0
20260905041535 17 284 9.7 29.0 0.00 0.15 0.13 60 1015.9
20260905041020 17 297 12.9 29.0 0.00 0.15 0.13 60 1016.0
20260905040518 16 294 11.3 25.7 0.00 0.15 0.13 60 1016.0
20260905040035 16 297 12.9 25.7 0.00 0.15 0.13 59 1016.1
20260905035520 16 268 9.7 33.8 0.00 0.15 0.13 58 1016.0
20260905035018 16 309 14.5 35.4 0.00 0.15 0.13 63 1016.0
20260905034534 16 360 12.9 35.4 0.00 0.15 0.13 62 1016.1
20260905034017 17 283 12.9 29.0 0.00 0.15 0.13 61 1016.0
20260905033518 17 306 11.3 29.0 0.00 0.15 0.13 62 1016.1
20260905033036 17 261 11.3 27.4 0.00 0.15 0.13 61 1016.1
20260905032518 17 307 9.7 32.2 0.00 0.15 0.13 60 1016.0
20260905032021 17 307 11.3 32.2 0.00 0.15 0.13 61 1016.1
20260905031537 16 285 12.9 33.8 0.00 0.15 0.13 62 1016.0
20260905031017 16 286 9.7 33.8 0.00 0.15 0.13 62 1016.0
20260905030517 16 313 12.9 29.0 0.00 0.15 0.13 60 1016.0
20260905030039 17 249 11.3 27.4 0.00 0.15 0.13 61 1016.0
20260905025516 17 265 11.3 27.4 0.00 0.15 0.13 60 1015.9
20260905025018 17 273 12.9 25.7 0.00 0.15 0.13 62 1015.9
20260905024534 16 271 11.3 25.7 0.00 0.15 0.13 62 1015.9
20260905024016 16 260 8.0 20.9 0.00 0.15 0.13 63 1015.9
20260905023517 16 286 6.4 22.5 0.00 0.15 0.13 64 1015.9
20260905023034 16 301 8.0 27.4 0.00 0.15 0.13 65 1015.9
20260905022520 16 264 4.8 27.4 0.00 0.41 0.13 67 1015.9
20260905022018 16 296 8.0 29.0 0.00 0.41 0.13 66 1015.9
20260905021533 16 296 8.0 29.0 0.00 0.41 0.13 65 1015.8
20260905021017 16 308 9.7 24.1 0.00 0.41 0.13 66 1015.6
20260905020519 16 325 11.3 24.1 0.00 0.41 0.13 66 1015.7
20260905020053 16 306 11.3 25.7 0.00 0.41 0.13 66 1015.6
20260905015519 16 315 8.0 25.7 0.00 0.41 0.13 68 1015.6
20260905015019 16 360 8.0 22.5 0.00 0.41 0.13 69 1015.8
20260905014535 16 360 9.7 22.5 0.00 0.41 0.13 68 1015.6
20260905014016 16 360 8.0 22.5 0.00 0.41 0.13 69 1015.7
20260905013518 16 267 6.4 19.3 0.00 0.41 0.13 70 1015.7
20260905013039 16 360 8.0 19.3 0.00 0.41 0.13 70 1015.6
20260905012520 16 259 6.4 25.7 0.00 0.41 0.13 72 1015.6
20260905012017 15 360 9.7 32.2 0.00 0.41 0.13 72 1015.5
20260905011535 15 360 9.7 32.2 0.00 0.41 0.13 75 1015.4
20260905011019 15 360 8.0 27.4 0.00 0.41 0.13 78 1015.2
20260905010520 14 360 11.3 27.4 0.00 0.41 0.13 79 1015.1
20260905010034 14 360 8.0 19.3 0.00 0.41 0.13 81 1015.1
20260905005515 13 360 6.4 19.3 0.00 0.41 0.13 82 1015.1
20260905005022 13 360 6.4 20.9 0.00 0.41 0.13 83 1014.9
20260905004533 13 299 6.4 20.9 0.00 0.41 0.13 84 1014.8
20260905004018 13 360 6.4 19.3 0.00 0.41 0.13 84 1014.8
20260905003519 13 295 4.8 24.1 0.00 0.41 0.13 83 1014.9
20260905003032 13 286 6.4 29.0 0.00 0.41 0.13 83 1014.8
20260905002520 13 263 12.9 29.0 0.00 0.41 0.13 83 1015.0
20260905002024 13 288 8.0 17.7 0.10 0.38 0.10 83 1014.6
20260905001532 13 297 4.8 16.1 0.10 0.38 0.10 83 1014.4
20260905001016 13 279 6.4 17.7 0.10 0.38 0.10 83 1014.5
20260905000516 13 267 6.4 17.7 0.10 0.38 0.10 83 1014.4
20260905000034 13 250 6.4 17.7 0.10 0.38 0.10 82 1014.4
20260904235516 13 281 6.4 17.7 0.10 0.38 0.10 82 1014.4
20260904235022 13 246 4.8 17.7 0.10 0.38 0.10 81 1014.3
20260904234534 13 331 6.4 19.3 0.10 0.38 0.10 80 1014.2
20260904234018 13 273 8.0 22.5 0.10 0.38 0.10 80 1014.2
20260904233518 13 327 8.0 25.7 0.10 0.38 0.10 79 1014.2
20260904233040 14 306 8.0 25.7 0.10 0.38 0.10 78 1014.2
20260904232522 15 273 11.3 24.1 0.08 0.36 0.08 77 1014.2
20260904232019 15 290 9.7 24.1 0.00 0.28 0.00 76 1013.5
20260904231537 15 318 8.0 20.9 0.00 0.28 0.00 75 1013.3
20260904231016 15 311 8.0 20.9 0.00 0.28 0.00 75 1013.4
20260904230522 15 296 8.0 17.7 0.00 0.28 0.00 74 1013.6
20260904230034 15 346 8.0 19.3 0.00 0.28 0.00 74 1013.3
20260904225518 15 360 8.0 19.3 0.00 0.28 0.00 74 1013.5
20260904225015 15 360 6.4 19.3 0.00 0.28 0.00 74 1013.5
20260904224537 15 323 4.8 19.3 0.00 0.28 0.00 74 1013.6
20260904224018 15 284 8.0 19.3 0.00 0.28 0.00 74 1013.5
20260904223518 15 293 6.4 19.3 0.00 0.28 0.00 75 1013.4
20260904223036 15 285 6.4 19.3 0.00 0.28 0.00 75 1013.4
20260904222522 14 298 8.0 19.3 0.00 0.28 0.00 76 1013.1
20260904222019 14 332 6.4 17.7 0.00 0.28 0.00 76 1013.2
20260904221537 14 300 8.0 17.7 0.00 0.28 0.00 76 1013.2
20260904221017 13 333 6.4 19.3 0.00 0.28 0.00 76 1013.1
20260904220518 13 360 8.0 19.3 0.00 0.28 0.00 76 1013.1
20260904220037 13 360 6.4 16.1 0.00 0.28 0.00 76 1013.1
20260904215516 13 360 8.0 16.1 0.00 0.28 0.00 77 1013.0
20260904215017 13 360 4.8 16.1 0.00 0.28 0.00 77 1013.1
20260904214536 13 360 4.8 16.1 0.00 0.28 0.00 77 1013.1
20260904214015 13 360 4.8 16.1 0.00 0.28 0.00 77 1013.0
20260904213518 13 360 6.4 16.1 0.00 0.28 0.00 77 1012.9
20260904213033 13 360 4.8 16.1 0.00 0.28 0.00 76 1012.9
20260904212516 13 287 6.4 19.3 0.00 0.28 0.00 76 1013.0
20260904212015 13 292 4.8 19.3 0.00 0.28 0.00 76 1013.0
20260904211535 13 313 4.8 20.9 0.00 0.28 0.00 76 1012.9
20260904211022 13 360 6.4 20.9 0.00 0.28 0.00 76 1012.9
20260904210518 13 360 4.8 24.1 0.00 0.28 0.00 76 1012.9
20260904210043 13 360 4.8 24.1 0.00 0.28 0.00 76 1012.8
20260904205527 13 360 8.0 20.9 0.00 0.28 0.00 76 1012.7
20260904205018 13 360 6.4 20.9 0.00 0.28 0.00 76 1012.7
20260904204535 13 249 3.2 14.5 0.00 0.28 0.00 76 1012.5
20260904204022 14 360 6.4 14.5 0.00 0.28 0.00 76 1012.4
20260904203518 14 360 4.8 14.5 0.00 0.28 0.00 77 1012.3
20260904203034 14 271 4.8 19.3 0.00 0.28 0.00 77 1012.4
20260904202519 14 275 4.8 19.3 0.00 0.28 0.00 78 1012.2
20260904202015 15 291 6.4 17.7 0.00 0.28 0.00 78 1012.2
20260904201535 15 249 4.8 22.5 0.00 0.28 0.00 79 1012.0
20260904201015 15 264 8.0 22.5 0.00 0.28 0.00 79 1011.9
20260904200520 15 258 6.4 22.5 0.00 0.28 0.00 79 1011.8
20260904200038 15 306 8.0 22.5 0.00 0.28 0.00 79 1011.8
20260904195524 15 286 6.4 19.3 0.00 0.28 0.00 80 1012.0
20260904195019 15 288 6.4 17.7 0.00 0.28 0.00 80 1011.8
20260904194536 15 288 4.8 24.1 0.00 0.28 0.00 80 1011.8
20260904194019 15 278 6.4 24.1 0.00 0.28 0.00 80 1011.6
20260904193519 15 292 8.0 19.3 0.00 0.28 0.00 80 1011.5
20260904193036 15 267 4.8 16.1 0.00 0.28 0.00 80 1011.4
20260904192516 15 294 4.8 16.1 0.00 0.28 0.00 80 1011.4
20260904192018 15 285 4.8 14.5 0.00 0.28 0.00 80 1011.3
20260904191535 15 306 4.8 12.9 0.00 0.28 0.00 80 1011.3
20260904191018 15 315 3.2 9.7 0.00 0.28 0.00 80 1011.2
20260904190516 15 318 3.2 8.0 0.00 0.28 0.00 80 1011.2
20260904190035 15 0 1.6 9.7 0.00 0.28 0.00 80 1011.0
20260904185516 15 344 1.6 11.3 0.00 0.28 0.00 80 1010.9
20260904185019 15 360 3.2 11.3 0.00 0.28 0.00 80 1010.8
20260904184533 15 310 3.2 12.9 0.00 0.28 0.00 79 1010.8
20260904184019 15 318 1.6 12.9 0.00 0.28 0.00 79 1010.8
20260904183516 15 318 1.6 12.9 0.00 0.28 0.00 79 1010.8
20260904183034 15 0 3.2 16.1 0.00 0.28 0.00 79 1010.8
20260904182524 15 329 1.6 16.1 0.00 0.28 0.00 79 1010.7
20260904182025 15 313 3.2 14.5 0.00 0.28 0.00 79 1010.6
20260904181534 15 305 4.8 14.5 0.00 0.28 0.00 79 1010.6
20260904181018 15 329 3.2 8.0 0.00 0.28 0.00 79 1010.4
20260904180520 15 332 1.6 6.4 0.00 0.28 0.00 79 1010.6
20260904180035 15 333 1.6 6.4 0.00 0.28 0.00 79 1010.5
20260904175520 15 0 0.0 8.0 0.00 0.28 0.00 79 1010.5
20260904175016 15 334 1.6 8.0 0.00 0.28 0.00 79 1010.4
20260904174534 15 0 0.0 4.8 0.00 0.28 0.00 79 1010.6
20260904174018 15 0 0.0 4.8 0.00 0.28 0.00 79 1010.5
20260904173516 15 360 0.0 4.8 0.00 0.28 0.00 79 1010.5
20260904173035 15 0 0.0 4.8 0.00 0.28 0.00 78 1010.4
20260904172519 15 341 0.0 4.8 0.00 0.28 0.00 78 1010.2
20260904172019 15 0 0.0 6.4 0.00 0.28 0.00 78 1010.3
20260904171542 15 340 0.0 6.4 0.00 0.28 0.00 78 1010.3
20260904171019 15 341 1.6 6.4 0.00 0.28 0.00 78 1010.5
20260904170518 16 0 0.0 6.4 0.00 0.28 0.00 78 1010.4
20260904170033 16 0 0.0 6.4 0.00 0.28 0.00 78 1010.4
20260904165518 16 0 0.0 4.8 0.00 0.28 0.00 78 1010.4
20260904165016 16 344 0.0 9.7 0.00 0.28 0.00 77 1010.5
20260904164533 16 344 3.2 9.7 0.00 0.28 0.00 77 1010.6
20260904164017 16 344 1.6 9.7 0.00 0.28 0.00 77 1010.6
20260904163516 16 344 3.2 9.7 0.00 0.28 0.00 77 1010.6
20260904163035 16 343 3.2 9.7 0.00 0.28 0.00 77 1010.7
20260904162517 16 341 1.6 8.0 0.00 0.28 0.00 76 1010.7
20260904162019 16 340 1.6 6.4 0.00 0.28 0.00 76 1010.6
20260904161536 16 340 1.6 6.4 0.00 0.28 0.00 76 1010.6
20260904161018 16 340 1.6 6.4 0.00 0.28 0.00 76 1010.7
20260904160516 16 0 0.0 6.4 0.00 0.28 0.00 76 1010.7
20260904160034 16 340 1.6 6.4 0.00 0.28 0.00 75 1010.8
20260904155519 16 0 1.6 6.4 0.00 0.28 0.00 75 1010.6
20260904155019 16 0 0.0 0.0 0.00 0.28 0.00 75 1010.5
20260904154534 16 0 0.0 4.8 0.00 0.28 0.00 75 1010.4
20260904154018 16 0 0.0 4.8 0.00 0.28 0.00 75 1010.2
20260904153517 16 339 1.6 4.8 0.00 0.28 0.00 75 1010.3
20260904153037 16 0 0.0 3.2 0.00 0.28 0.00 75 1010.2
20260904152518 16 0 0.0 1.6 0.00 0.28 0.00 75 1010.2
20260904152017 16 0 0.0 1.6 0.00 0.28 0.00 75 1010.7
20260904151534 16 0 0.0 4.8 0.00 0.28 0.00 75 1010.4
20260904151019 16 0 0.0 4.8 0.00 0.28 0.00 75 1010.7
20260904150519 16 0 0.0 6.4 0.00 0.28 0.00 75 1010.5
20260904150038 16 0 0.0 6.4 0.00 0.28 0.00 75 1010.4
20260904145517 16 340 1.6 6.4 0.00 0.28 0.00 75 1010.4
20260904145018 16 340 1.6 4.8 0.00 0.28 0.00 75 1010.2
20260904144533 16 0 0.0 8.0 0.00 0.28 0.00 74 1010.4
20260904144017 16 342 1.6 12.9 0.00 0.28 0.00 74 1010.2
20260904143856 16 344 3.2 12.9 0.00 0.28 0.00 74 1009.9
20260904134536 16 323 1.6 4.8 0.00 0.28 0.28 74 1010.2
20260904134015 16 323 1.6 4.8 0.00 0.28 0.28 74 1010.3
20260904133521 16 0 0.0 4.8 0.00 0.28 0.28 74 1010.4
20260904133032 16 0 1.6 8.0 0.00 0.28 0.28 74 1010.4
20260904132519 16 0 0.0 12.9 0.00 0.28 0.28 74 1010.0
20260904132022 16 355 3.2 12.9 0.00 0.28 0.28 74 1010.0
20260904131544 16 348 1.6 8.0 0.00 0.28 0.28 74 1009.9
20260904131017 17 346 3.2 8.0 0.00 0.28 0.28 74 1009.8
20260904130518 17 348 0.0 8.0 0.00 0.28 0.28 74 1010.0
20260904130039 17 355 1.6 12.9 0.00 0.28 0.28 74 1010.0
20260904125519 17 360 3.2 12.9 0.00 0.28 0.28 74 1009.7
20260904125020 17 360 1.6 9.7 0.00 0.28 0.28 74 1009.8
20260904124532 17 355 3.2 9.7 0.00 0.28 0.28 74 1009.8
20260904124015 17 355 1.6 9.7 0.00 0.28 0.28 74 1009.9
20260904123517 17 355 3.2 11.3 0.00 0.28 0.28 74 1010.0
20260904123034 17 0 1.6 11.3 0.00 0.28 0.28 74 1010.0
20260904122519 17 18 1.6 12.9 0.00 0.28 0.28 73 1010.2
20260904122019 17 19 3.2 12.9 0.00 0.28 0.28 73 1010.3
20260904121532 17 360 3.2 14.5 0.00 0.28 0.28 73 1010.4
20260904121016 17 53 3.2 14.5 0.00 0.28 0.28 73 1010.4
20260904120517 17 355 3.2 8.0 0.00 0.28 0.28 73 1010.4
20260904120045 17 350 3.2 9.7 0.00 0.28 0.28 73 1010.4
20260904115521 17 33 3.2 12.9 0.00 0.28 0.28 72 1010.6
20260904115016 17 355 3.2 16.1 0.00 0.28 0.28 72 1010.5
20260904114534 18 17 3.2 16.1 0.00 0.28 0.28 72 1010.6
20260904114016 18 59 4.8 16.1 0.00 0.28 0.28 72 1010.6
20260904113519 18 329 6.4 16.1 0.00 0.28 0.28 72 1010.7
20260904113033 18 80 6.4 16.1 0.00 0.28 0.28 71 1010.9
20260904112519 18 348 3.2 19.3 0.00 0.28 0.28 71 1010.7
20260904112016 18 355 3.2 19.3 0.00 0.28 0.28 71 1010.9
20260904111541 18 355 3.2 14.5 0.00 0.28 0.28 71 1010.9
20260904111015 18 355 3.2 14.5 0.00 0.28 0.28 71 1010.8
20260904110515 18 355 1.6 19.3 0.00 0.28 0.28 71 1010.8
20260904110036 18 351 3.2 19.3 0.00 0.28 0.28 71 1010.6
20260904105519 18 27 4.8 19.3 0.00 0.28 0.28 71 1010.6
20260904105019 18 17 4.8 17.7 0.00 0.28 0.28 71 1010.8
20260904104725 18 327 3.2 17.7 0.00 0.28 0.28 71 1010.7